Location: Big Meadows
(38.5260°N, 78.4400°W)
Time: 14:03:59
(UTC-04:00)

Amateur Radio Satellites - All Passes

Search period start: 28 May 2015 13:33
Search period end: 29 May 2015 13:33
Location: Big Meadows, 38.5260°N, 78.4400°W

Satellite Date Start Highest point End Downlink Frequencies (MHz)
Time Altitude Azimuth
SO-50 28 May 13:38:07 13:41:51 21° 249° (WSW) 13:45:25 436.795
CUSAT 1 28 May 13:41:08 13:48:32 78° 281° (W) 13:56:55 437.405
ITAMSAT 1 28 May 13:41:16 13:44:44 19° 65° (ENE) 13:48:23 435.822/435.867
SWISSCUBE 28 May 13:45:40 13:48:02 14° 90° (E) 13:50:40 437.505
AO-7 28 May 14:17:18 14:21:22 15° 51° (NE) 14:25:54 29.400- 29.500
Gurwin Techsat 1B 28 May 14:26:25 14:31:28 47° 72° (ENE) 14:36:34 435.225
JAS-2 28 May 14:33:47 14:36:12 13° 63° (ENE) 14:38:53 435.910
SRMSAT 28 May 14:44:03 14:45:47 11° 185° (S) 14:47:29 437.500
RS-15 28 May 14:44:18 14:51:12 18° 9° (N) 14:58:26 29.354- 29.394
SPROUT 28 May 14:50:04 14:52:25 14° 294° (WNW) 14:54:35 437.525
O/OREOS (USA 219) 28 May 14:53:13 14:56:07 18° 102° (ESE) 14:59:11 437.305
KKS-1 28 May 14:53:46 14:54:11 10° 88° (E) 14:54:54 437.445
GONETS M04 28 May 14:54:14 15:02:29 41° 287° (WNW) 15:10:39
Oscar 19 28 May 15:02:35 15:06:37 22° 267° (W) 15:10:31 437.125/150
DANDE 28 May 15:05:03 15:11:26 28° 295° (WNW) 15:18:22 436.750
ITUPSAT 1 28 May 15:06:06 15:10:55 90° 246° (WSW) 15:15:43 437.325
TISAT 1 28 May 15:07:29 15:09:21 12° 295° (WNW) 15:11:01 437.305
Cosmos 2499 28 May 15:08:50 15:16:39 54° 92° (E) 15:23:59 435.465 / 435.565
BEESAT 28 May 15:12:47 15:17:34 75° 284° (WNW) 15:22:19 436.000
ITAMSAT 1 28 May 15:18:52 15:23:53 51° 260° (W) 15:28:56 435.822/435.867
SWISSCUBE 28 May 15:21:37 15:26:19 56° 286° (WNW) 15:30:59 437.505
CUSAT 1 28 May 15:27:59 15:32:50 16° 302° (WNW) 15:37:27 437.405
STARS 28 May 15:51:02 15:54:52 29° 96° (E) 15:58:43 437.465
AO-7 28 May 16:04:41 16:12:53 71° 70° (ENE) 16:21:11 29.400- 29.500
Gurwin Techsat 1B 28 May 16:07:49 16:11:45 20° 268° (W) 16:15:30 435.225
JAS-2 28 May 16:14:04 16:20:49 87° 77° (ENE) 16:26:46 435.910
HORYU 2 28 May 16:16:29 16:20:59 80° 258° (WSW) 16:25:29 437.375
KKS-1 28 May 16:26:54 16:31:22 66° 285° (WNW) 16:35:46 437.445
O/OREOS (USA 219) 28 May 16:31:00 16:35:16 40° 296° (WNW) 16:39:30 437.305
MOZHAYETS 4 28 May 16:34:21 16:35:01 10° 88° (E) 16:36:01
RS-15 28 May 16:57:51 17:08:18 39° 41° (NE) 17:19:22 29.354- 29.394
Cosmos 2499 28 May 17:03:24 17:10:10 28° 289° (WNW) 17:16:21 435.465 / 435.565
BEESAT 2 28 May 17:03:29 17:05:13 13° 110° (ESE) 17:07:10 435.950
STARS 28 May 17:27:37 17:31:13 24° 291° (WNW) 17:34:40 437.465
CUTE-I 28 May 17:45:03 17:49:11 24° 67° (ENE) 17:53:27 437.470
BEESAT 3 28 May 17:47:43 17:51:39 51° 117° (ESE) 17:55:39 437.485
AO-7 28 May 18:00:03 18:06:28 23° 268° (W) 18:12:35 29.400- 29.500
JAS-2 28 May 18:03:34 18:06:31 13° 271° (W) 18:08:55 435.910
Cubesat XI-IV 28 May 18:05:24 18:10:12 37° 70° (ENE) 18:15:07 437.490
MOZHAYETS 4 28 May 18:08:15 18:12:48 67° 284° (WNW) 18:17:20
CUBESAT XI-V 28 May 18:17:33 18:18:38 11° 88° (E) 18:20:04 437.345
BEESAT 2 28 May 18:38:53 18:42:54 53° 304° (NW) 18:46:58 435.950
YUBILEINY 28 May 18:40:07 18:48:31 52° 76° (ENE) 18:56:59 435.215
AIST 2 28 May 18:40:13 18:44:12 42° 116° (ESE) 18:48:16 435.215
Cosmos 2491 28 May 18:43:49 18:50:49 29° 85° (E) 18:58:08 435.465 / 435.565
RS-15 28 May 19:10:08 19:21:44 70° 244° (WSW) 19:33:43 29.354- 29.394
BRITE-PL 28 May 19:17:03 19:20:15 17° 64° (ENE) 19:23:46 437.365/2234.400
CUTE-I 28 May 19:24:04 19:29:03 41° 262° (W) 19:34:03 437.470
BEESAT 3 28 May 19:27:19 19:29:58 16° 315° (NW) 19:32:32 437.485
Cubesat XI-IV 28 May 19:46:01 19:50:26 25° 266° (W) 19:54:45 437.490
CANX-2 28 May 19:51:28 19:52:46 11° 66° (ENE) 19:54:18 2200.000
CUBESAT XI-V 28 May 19:51:57 19:56:38 68° 285° (WNW) 20:01:19 437.345
CUTE 1.7 + AOD 2 28 May 19:54:51 19:56:02 11° 66° (ENE) 19:57:28 437.475
DOVE 4 28 May 20:01:47 20:05:18 19° 66° (ENE) 20:09:03 437.250
AIST 1 28 May 20:04:50 20:07:34 17° 88° (E) 20:10:27
SEEDS 28 May 20:13:17 20:15:37 15° 68° (ENE) 20:18:06 437.485
STRAND 1 28 May 20:16:51 20:22:01 79° 103° (ESE) 20:27:11 437.568
AIST 2 28 May 20:19:46 20:22:59 20° 313° (NW) 20:26:09 435.215
COMPASS 1 28 May 20:23:25 20:25:48 15° 68° (ENE) 20:28:21 437.405
HO-68 28 May 20:25:57 20:32:44 48° 68° (ENE) 20:39:34 435.675
PRISM 28 May 20:27:34 20:31:41 60° 286° (WNW) 20:35:47 437.425
AAUSAT CUBESAT 2 28 May 20:33:38 20:36:17 17° 68° (ENE) 20:39:04 437.432
YUBILEINY 28 May 20:37:36 20:45:01 32° 274° (W) 20:52:12 435.215
Cosmos 2491 28 May 20:38:34 20:47:13 58° 282° (WNW) 20:55:54 435.465 / 435.565
Cosmos 2504 28 May 20:38:53 20:44:44 27° 70° (ENE) 20:50:46 435.465 / 435.565
M-CUBED/EXP-1 PRIME 28 May 20:40:58 20:44:13 56° 105° (ESE) 20:47:31 437.505
GOMX 1 28 May 20:45:53 20:51:01 75° 77° (ENE) 20:56:29 467.674
AUBIESAT-1 28 May 20:47:17 20:50:33 58° 106° (ESE) 20:53:52 437.475
UWE-3 28 May 20:51:43 20:52:28 10° 64° (ENE) 20:53:29 435.000/436.395/437.385
BRITE-PL 28 May 20:53:08 20:58:11 62° 261° (W) 21:03:38 437.365/2234.400
CINEMA 3 28 May 21:02:02 21:06:32 35° 71° (ENE) 21:11:07 145.822/145.860
CANX-2 28 May 21:24:02 21:28:15 60° 260° (W) 21:32:28 2200.000
RS-15 28 May 21:26:53 21:32:37 14° 260° (W) 21:37:12 29.354- 29.394
CUTE 1.7 + AOD 2 28 May 21:27:16 21:31:30 61° 259° (W) 21:35:43 437.475
ZACube-1 28 May 21:34:52 21:38:28 24° 70° (ENE) 21:42:10 437.345
UKube-1 28 May 21:36:09 21:36:33 10° 64° (ENE) 21:37:12 .
DOVE 4 28 May 21:37:37 21:42:37 53° 262° (W) 21:47:49 437.250
CUBEBUG 2 28 May 21:40:43 21:45:13 44° 73° (ENE) 21:49:44 437.445
AIST 1 28 May 21:41:07 21:44:59 33° 283° (WNW) 21:48:52
Oscar 11 28 May 21:42:20 21:46:29 47° 74° (ENE) 21:50:40 145.826/435.025
DX 1 28 May 21:45:42 21:48:03 15° 66° (ENE) 21:50:36 434.975-435.025
SEEDS 28 May 21:47:03 21:51:05 43° 262° (W) 21:55:08 437.485
COMPASS 1 28 May 21:57:12 22:01:11 41° 262° (W) 22:05:09 437.405
STRAND 1 28 May 21:58:22 22:00:38 13° 298° (WNW) 22:02:39 437.568
AAUSAT CUBESAT 2 28 May 22:07:47 22:11:39 36° 263° (W) 22:15:30 437.432
VELOX 1 28 May 22:07:57 22:09:48 13° 65° (ENE) 22:11:53 145.980
HO-68 28 May 22:14:25 22:20:41 31° 265° (W) 22:26:49 435.675
DELFI C3 28 May 22:21:33 22:25:35 81° 256° (WSW) 22:29:37 145.870
UWE-3 28 May 22:23:43 22:28:25 81° 258° (WSW) 22:33:06 435.000/436.395/437.385
GOMX 1 28 May 22:27:32 22:29:53 12° 274° (W) 22:31:56 467.674
FUNcube-1 28 May 22:28:31 22:33:07 88° 78° (ENE) 22:37:42 145.935
Cosmos 2504 28 May 22:31:36 22:38:28 49° 269° (W) 22:45:19 435.465 / 435.565
AISAT 28 May 22:38:11 22:41:56 28° 70° (ENE) 22:45:48 437.250
CINEMA 3 28 May 22:39:39 22:43:47 25° 267° (W) 22:47:51 145.822/145.860
ANTELSAT 28 May 22:40:51 22:42:17 12° 89° (E) 22:43:59 437.575/2403.000
CUSAT 1 28 May 22:43:41 22:46:03 12° 54° (NE) 22:48:39 437.405
HUMSAT D 28 May 22:48:02 22:52:19 67° 75° (ENE) 22:56:36 437.325/437.525
ISS 28 May 23:00:59 23:04:10 59° 137° (SE) 23:07:23 145.825
UKube-1 28 May 23:07:50 23:12:09 72° 259° (W) 23:16:30 .
GONETS M04 28 May 23:10:33 23:16:02 19° 62° (ENE) 23:21:58
ZACube-1 28 May 23:10:34 23:14:42 31° 264° (W) 23:18:46 437.345
TIGRISAT 28 May 23:10:57 23:14:34 26° 95° (E) 23:18:11 435.000
QB50P1 28 May 23:11:33 23:12:45 11° 89° (E) 23:14:14 145.935-145.965
POLYITAN 1 28 May 23:14:13 23:15:56 12° 89° (E) 23:17:54 437.675
50 SAT 28 May 23:16:38 23:20:39 81° 74° (ENE) 23:24:38 437.505
CUBEBUG 2 28 May 23:18:47 23:22:08 18° 269° (W) 23:25:18 437.445
DX 1 28 May 23:19:44 23:23:56 48° 261° (W) 23:28:11 434.975-435.025
Oscar 11 28 May 23:20:42 23:22:59 14° 270° (W) 23:25:04 145.826/435.025
UNISAT 6 28 May 23:31:52 23:36:05 47° 99° (E) 23:40:13 437.425
CUBEBUG 1 28 May 23:33:59 23:38:13 55° 74° (ENE) 23:42:32 437.445
NANOSAT C BR1 28 May 23:40:14 23:43:43 25° 95° (E) 23:47:15 145.865
VELOX 1 28 May 23:41:32 23:45:55 59° 260° (W) 23:50:20 145.980
QB50P2 28 May 23:49:31 23:53:22 33° 97° (E) 23:57:14 145.880/145.840
ESTCUBE 1 28 May 23:52:16 23:56:44 79° 257° (WSW) 00:01:15 437.505/2401.250
POPSAT HIP 1 29 May 00:01:06 00:05:11 43° 98° (E) 00:09:15 437.405
DUCHIFAT 1 29 May 00:01:20 00:05:24 42° 98° (E) 00:09:26 145.980
SPROUT 29 May 00:05:22 00:09:12 32° 71° (ENE) 00:13:06 437.525
DANDE 29 May 00:05:43 00:13:01 47° 72° (ENE) 00:18:46 436.750
AISAT 29 May 00:14:48 00:18:30 25° 265° (W) 00:22:10 437.250
BUGSAT 1 29 May 00:15:11 00:19:15 42° 98° (E) 00:23:17 437.445
ANTELSAT 29 May 00:15:16 00:19:32 53° 286° (WNW) 00:23:42 437.575/2403.000
TISAT 1 29 May 00:20:37 00:24:26 34° 72° (ENE) 00:28:20 437.305
VERMONT LUNAR 29 May 00:21:23 00:23:16 15° 147° (SSE) 00:25:12 437.305
CUSAT 1 29 May 00:23:31 00:30:32 81° 79° (E) 00:35:48 437.405
ISS 29 May 00:38:24 00:40:50 19° 335° (NNW) 00:43:15 145.825
BEESAT 29 May 00:43:56 00:45:10 11° 63° (ENE) 00:46:40 436.000
QB50P1 29 May 00:44:51 00:49:04 55° 286° (WNW) 00:53:13 145.935-145.965
TIGRISAT 29 May 00:47:41 00:51:16 25° 291° (WNW) 00:54:44 435.000
POLYITAN 1 29 May 00:48:04 00:52:14 50° 286° (WNW) 00:56:20 437.675
SWISSCUBE 29 May 00:51:23 00:53:54 15° 65° (ENE) 00:56:38 437.505
PCSat 29 May 00:56:38 01:02:01 77° 116° (ESE) 01:07:28 145.827
O/OREOS (USA 219) 29 May 01:03:16 01:07:04 27° 60° (ENE) 01:10:55 437.305
Cosmos 2499 29 May 01:03:39 01:06:51 14° 62° (ENE) 01:10:32 435.465 / 435.565
GONETS M04 29 May 01:05:26 01:14:17 87° 264° (W) 01:23:00
UNISAT 6 29 May 01:09:59 01:12:30 15° 294° (WNW) 01:14:48 437.425
CUBEBUG 1 29 May 01:13:11 01:15:00 12° 271° (W) 01:16:35 437.445
PHONESAT 2.4 29 May 01:15:56 01:17:00 11° 144° (SE) 01:18:10 2401.200-2431.200
NANOSAT C BR1 29 May 01:15:56 01:19:31 26° 290° (WNW) 01:22:59 145.865
QB50P2 29 May 01:25:54 01:29:05 20° 291° (WNW) 01:32:06 145.880/145.840
Oscar 19 29 May 01:36:25 01:39:28 16° 90° (E) 01:42:44 437.125/150
POPSAT HIP 1 29 May 01:38:07 01:40:44 15° 293° (WNW) 01:43:11 437.405
DUCHIFAT 1 29 May 01:38:16 01:40:54 16° 293° (WNW) 01:43:21 145.980
SPROUT 29 May 01:42:07 01:45:22 20° 267° (W) 01:48:32 437.525
DANDE 29 May 01:49:38 01:55:48 28° 275° (W) 02:00:43 436.750
BUGSAT 1 29 May 01:51:43 01:54:25 16° 293° (WNW) 01:56:55 437.445
VERMONT LUNAR 29 May 01:56:54 02:00:06 66° 161° (SSE) 02:03:19 437.305
TISAT 1 29 May 01:57:20 02:00:21 18° 268° (W) 02:03:14 437.305
BEESAT 3 29 May 02:08:10 02:11:20 22° 48° (NE) 02:14:31 437.485
CUSAT 1 29 May 02:08:55 02:11:54 13° 282° (WNW) 02:14:14 437.405
SO-50 29 May 02:11:02 02:14:18 20° 111° (ESE) 02:17:48 436.795
ITUPSAT 1 29 May 02:11:23 02:16:09 88° 74° (ENE) 02:20:56 437.325
BEESAT 29 May 02:17:42 02:22:27 78° 259° (W) 02:27:13 436.000
SWISSCUBE 29 May 02:26:40 02:31:20 57° 260° (W) 02:36:02 437.505
PCSat 29 May 02:42:34 02:46:08 17° 315° (NW) 02:49:31 145.827
O/OREOS (USA 219) 29 May 02:42:42 02:46:26 26° 256° (WSW) 02:50:05 437.305
Gurwin Techsat 1B 29 May 02:44:47 02:48:40 21° 92° (E) 02:52:43 435.225
STARS 29 May 02:46:55 02:50:20 23° 69° (ENE) 02:53:52 437.465
PHONESAT 2.4 29 May 02:51:16 02:54:39 51° 158° (SSE) 02:58:03 2401.200-2431.200
Cosmos 2499 29 May 02:54:05 03:01:10 88° 264° (W) 03:08:25 435.465 / 435.565
BEESAT 2 29 May 02:59:20 03:03:24 57° 56° (ENE) 03:07:22 435.950
AIST 2 29 May 03:03:44 03:06:52 20° 47° (NE) 03:10:03 435.215
GONETS M04 29 May 03:05:08 03:09:59 15° 281° (W) 03:14:13
Oscar 19 29 May 03:14:12 03:19:15 55° 287° (WNW) 03:24:14 437.125/150
KKS-1 29 May 03:23:17 03:27:46 88° 257° (WSW) 03:32:18 437.445
ITAMSAT 1 29 May 03:32:55 03:38:07 64° 101° (E) 03:43:18 435.822/435.867
VERMONT LUNAR 29 May 03:34:10 03:37:21 58° 357° (N) 03:40:32 437.305
BEESAT 3 29 May 03:45:42 03:49:24 33° 245° (WSW) 03:53:00 437.485
SO-50 29 May 03:50:01 03:54:32 45° 307° (NW) 03:59:12 436.795
ISS 29 May 03:54:40 03:55:55 12° 15° (NNE) 03:57:12 145.825
AO-7 29 May 04:08:55 04:15:17 25° 93° (E) 04:21:58 29.400- 29.500
HORYU 2 29 May 04:09:57 04:13:17 21° 94° (E) 04:16:44 437.375
STARS 29 May 04:22:40 04:26:38 31° 264° (W) 04:30:35 437.465
Gurwin Techsat 1B 29 May 04:23:51 04:28:55 45° 289° (WNW) 04:33:56 435.225
PHONESAT 2.4 29 May 04:29:18 04:32:46 64° 353° (N) 04:36:13 2401.200-2431.200
BEESAT 2 29 May 04:39:36 04:41:02 11° 251° (WSW) 04:42:13 435.950
AIST 2 29 May 04:41:40 04:45:37 39° 245° (WSW) 04:49:28 435.215
Cosmos 2499 29 May 04:50:41 04:53:26 12° 279° (W) 04:55:39 435.465 / 435.565
Cosmos 2491 29 May 04:57:29 05:00:19 12° 56° (NE) 05:03:54 435.465 / 435.565
MOZHAYETS 4 29 May 05:08:28 05:13:04 85° 257° (WSW) 05:17:39
JAS-2 29 May 05:09:35 05:14:47 85° 101° (E) 05:20:15 435.910
VERMONT LUNAR 29 May 05:11:28 05:14:41 86° 14° (NNE) 05:17:53 437.305
ITAMSAT 1 29 May 05:14:00 05:17:09 16° 296° (WNW) 05:20:04 435.822/435.867
ISS 29 May 05:29:52 05:33:00 44° 34° (NE) 05:36:09 145.825
HORYU 2 29 May 05:46:04 05:50:01 32° 289° (WNW) 05:53:53 437.375
STRAND 1 29 May 05:56:19 05:57:49 11° 62° (ENE) 05:59:36 437.568
AO-7 29 May 06:00:28 06:08:47 68° 291° (WNW) 06:17:03 29.400- 29.500
PHONESAT 2.4 29 May 06:07:34 06:11:03 74° 10° (N) 06:14:31 2401.200-2431.200
Cubesat XI-IV 29 May 06:25:05 06:28:18 17° 90° (E) 06:31:46 437.490
VERMONT LUNAR 29 May 06:49:00 06:51:39 24° 209° (SSW) 06:54:17 437.305
Cosmos 2491 29 May 06:50:32 06:59:21 68° 80° (E) 07:08:05 435.465 / 435.565
CUBESAT XI-V 29 May 06:53:41 06:58:17 83° 258° (WSW) 07:02:56 437.345
JAS-2 29 May 06:58:06 06:59:22 11° 298° (WNW) 07:00:19 435.910
ISS 29 May 07:06:57 07:09:12 17° 229° (SW) 07:11:23 145.825
PRISM 29 May 07:16:00 07:20:04 80° 76° (ENE) 07:24:10 437.425
RS-15 29 May 07:24:06 07:30:55 20° 102° (ESE) 07:38:30 29.354- 29.394
M-CUBED/EXP-1 PRIME 29 May 07:27:29 07:31:39 66° 72° (ENE) 07:35:29 437.505
STRAND 1 29 May 07:31:17 07:36:23 84° 257° (WSW) 07:41:32 437.568
AUBIESAT-1 29 May 07:33:22 07:37:29 67° 71° (ENE) 07:41:18 437.475
YUBILEINY 29 May 07:38:44 07:47:19 64° 92° (E) 07:55:55 435.215
CUTE-I 29 May 07:42:06 07:47:31 89° 102° (ESE) 07:52:54 437.470
PHONESAT 2.4 29 May 07:45:51 07:49:02 35° 207° (SSW) 07:52:13 2401.200-2431.200
AIST 1 29 May 07:49:08 07:53:24 48° 79° (E) 07:57:40
AO-7 29 May 07:55:54 08:00:14 15° 310° (NW) 08:04:08 29.400- 29.500
Cubesat XI-IV 29 May 08:03:34 08:08:51 58° 287° (WNW) 08:14:07 437.490
Cosmos 2491 29 May 08:48:48 08:55:32 24° 277° (W) 09:01:50 435.465 / 435.565
GOMX 1 29 May 08:50:22 08:54:44 27° 92° (E) 08:58:59 467.674
BRITE-PL 29 May 08:59:41 09:05:11 54° 98° (E) 09:10:22 437.365/2234.400
CANX-2 29 May 09:11:15 09:14:41 24° 94° (E) 09:18:12 2200.000
CUTE 1.7 + AOD 2 29 May 09:14:27 09:17:51 24° 94° (E) 09:21:18 437.475
Cosmos 2504 29 May 09:15:42 09:22:00 26° 86° (E) 09:28:15 435.465 / 435.565
CUTE-I 29 May 09:24:56 09:26:56 12° 299° (WNW) 09:28:36 437.470
AIST 1 29 May 09:28:35 09:30:40 13° 273° (W) 09:32:31
RS-15 29 May 09:31:04 09:41:59 89° 305° (NW) 09:53:12 29.354- 29.394
SEEDS 29 May 09:32:52 09:36:36 32° 96° (E) 09:40:22 437.485
YUBILEINY 29 May 09:37:39 09:44:52 27° 293° (WNW) 09:51:47 435.215
DOVE 4 29 May 09:38:43 09:43:38 51° 98° (E) 09:48:16 437.250
ANTELSAT 29 May 09:39:22 09:40:33 11° 64° (ENE) 09:42:01 437.575/2403.000
COMPASS 1 29 May 09:42:04 09:45:47 32° 96° (E) 09:49:32 437.405
HO-68 29 May 09:42:21 09:49:22 56° 101° (E) 09:56:22 435.675
PCSat 29 May 09:46:05 09:51:16 45° 56° (NE) 09:56:27 145.827
AAUSAT CUBESAT 2 29 May 09:51:58 09:55:47 36° 97° (E) 09:59:36 437.432
DELFI C3 29 May 10:03:36 10:05:48 15° 91° (E) 10:08:10 145.870
TIGRISAT 29 May 10:08:25 10:11:57 22° 69° (ENE) 10:15:34 435.000
UWE-3 29 May 10:16:14 10:19:33 22° 93° (E) 10:22:53 435.000/436.395/437.385
FUNcube-1 29 May 10:19:46 10:22:37 18° 92° (E) 10:25:33 145.935
GOMX 1 29 May 10:28:07 10:32:56 35° 290° (WNW) 10:37:26 467.674
UNISAT 6 29 May 10:29:09 10:33:26 37° 72° (ENE) 10:37:43 437.425
NANOSAT C BR1 29 May 10:32:13 10:34:52 17° 67° (ENE) 10:37:41 145.865
CINEMA 3 29 May 10:35:29 10:40:11 84° 283° (WNW) 10:44:36 145.822/145.860
HUMSAT D 29 May 10:35:58 10:37:14 11° 89° (E) 10:38:43 437.325/437.525
BRITE-PL 29 May 10:39:09 10:43:14 20° 295° (WNW) 10:47:01 437.365/2234.400
QB50P2 29 May 10:41:31 10:44:46 22° 69° (ENE) 10:48:07 145.880/145.840
SO-50 29 May 10:43:20 10:46:26 17° 41° (NE) 10:49:39 436.795
CANX-2 29 May 10:47:06 10:50:34 25° 290° (WNW) 10:53:58 2200.000
CUTE 1.7 + AOD 2 29 May 10:50:13 10:53:44 25° 289° (WNW) 10:57:09 437.475
DUCHIFAT 1 29 May 10:52:32 10:56:07 27° 70° (ENE) 10:59:46 145.980
POPSAT HIP 1 29 May 10:52:41 10:56:19 28° 71° (ENE) 11:00:02 437.405
UKube-1 29 May 10:57:32 11:00:46 21° 94° (E) 11:04:06 .
ZACube-1 29 May 11:00:24 11:04:37 55° 99° (E) 11:08:45 437.345
BUGSAT 1 29 May 11:04:13 11:07:35 25° 70° (ENE) 11:11:04 437.445
Cosmos 2504 29 May 11:06:48 11:15:01 59° 281° (WNW) 11:22:39 435.465 / 435.565
Oscar 11 29 May 11:06:55 11:11:12 67° 285° (WNW) 11:15:27 145.826/435.025
SEEDS 29 May 11:09:10 11:12:12 19° 291° (WNW) 11:15:09 437.485
DX 1 29 May 11:09:37 11:13:31 31° 97° (E) 11:17:25 434.975-435.025
CUBEBUG 2 29 May 11:09:59 11:14:24 69° 284° (WNW) 11:18:37 437.445
ANTELSAT 29 May 11:12:07 11:16:48 76° 258° (WSW) 11:21:27 437.575/2403.000
DOVE 4 29 May 11:17:35 11:20:56 17° 295° (WNW) 11:24:00 437.250
COMPASS 1 29 May 11:18:17 11:21:16 19° 291° (WNW) 11:24:08 437.405
JUGNU 29 May 11:20:23 11:22:28 12° 178° (S) 11:24:33 437.505
CUBEBUG 1 29 May 11:26:31 11:27:55 12° 89° (E) 11:29:36 437.445
AAUSAT CUBESAT 2 29 May 11:28:23 11:31:09 17° 292° (WNW) 11:33:46 437.432
PCSat 29 May 11:30:09 11:34:27 24° 252° (WSW) 11:38:35 145.827
HO-68 29 May 11:30:52 11:36:44 27° 298° (WNW) 11:42:24 435.675
VELOX 1 29 May 11:33:47 11:37:39 28° 96° (E) 11:41:33 145.980
QB50P1 29 May 11:35:42 11:39:58 89° 78° (ENE) 11:44:18 145.935-145.965
DELFI C3 29 May 11:37:23 11:41:07 37° 287° (WNW) 11:44:49 145.870
POLYITAN 1 29 May 11:39:08 11:43:27 82° 257° (WSW) 11:47:48 437.675
TIGRISAT 29 May 11:44:12 11:48:31 35° 263° (W) 11:52:45 435.000
CUSAT 1 29 May 11:45:38 11:50:17 18° 82° (E) 11:55:39 437.405
RS-15 29 May 11:46:56 11:56:12 29° 327° (NNW) 12:05:30 29.354- 29.394
ESTCUBE 1 29 May 11:46:56 11:50:34 24° 94° (E) 11:54:18 437.505/2401.250
UWE-3 29 May 11:52:21 11:56:08 29° 289° (WNW) 11:59:46 435.000/436.395/437.385
FUNcube-1 29 May 11:55:12 11:59:06 34° 288° (WNW) 12:02:53 145.935
AISAT 29 May 12:05:56 12:10:26 69° 101° (ESE) 12:14:53 437.250
NANOSAT C BR1 29 May 12:06:23 12:10:25 40° 262° (W) 12:14:28 145.865
UNISAT 6 29 May 12:06:48 12:10:20 20° 267° (W) 12:13:43 437.425
HUMSAT D 29 May 12:09:20 12:13:22 50° 286° (WNW) 12:17:20 437.325/437.525
GONETS M04 29 May 12:10:42 12:16:44 22° 82° (E) 12:23:13
QB50P2 29 May 12:16:43 12:20:30 30° 264° (W) 12:24:17 145.880/145.840
SO-50 29 May 12:22:38 12:27:36 76° 240° (WSW) 12:32:27 436.795
DUCHIFAT 1 29 May 12:28:25 12:31:54 23° 266° (W) 12:35:20 145.980
POPSAT HIP 1 29 May 12:28:44 12:32:11 23° 266° (W) 12:35:35 437.405
50 SAT 29 May 12:29:09 12:32:55 50° 286° (WNW) 12:36:37 437.505
UKube-1 29 May 12:33:05 12:36:58 32° 289° (WNW) 12:40:48 .
ZACube-1 29 May 12:38:39 12:40:32 12° 295° (WNW) 12:42:12 437.345
BUGSAT 1 29 May 12:39:31 12:42:59 25° 265° (W) 12:46:26 437.445
SRMSAT 29 May 12:42:47 12:44:35 11° 176° (S) 12:46:25 437.500
DX 1 29 May 12:46:09 12:49:37 22° 291° (WNW) 12:52:58 434.975-435.025
Oscar 19 29 May 12:51:43 12:55:33 22° 67° (ENE) 12:59:33 437.125/150
CUBEBUG 1 29 May 13:00:21 13:04:44 59° 285° (WNW) 13:09:06 437.445
JUGNU 29 May 13:09:59 13:10:36 10° 188° (S) 13:11:09 437.505
VELOX 1 29 May 13:10:25 13:14:07 25° 291° (WNW) 13:17:42 145.980
DANDE 29 May 13:11:27 13:18:32 61° 93° (E) 13:26:54 436.750
ITAMSAT 1 29 May 13:15:42 13:15:50 10° 61° (ENE) 13:16:18 435.822/435.867
ESTCUBE 1 29 May 13:23:29 13:27:28 30° 290° (WNW) 13:31:22 437.505/2401.250
